| time (UTC) | temp F | wind direction | speed knots | gust knots | rain 1hr in | rain 24hr in | rain mn in | humidity % | barometer mb |
| 20260505183016 | 83 | 168 | 5.2 | 18.2 | 0.00 | 0.00 | 0.00 | 46 | 1005.9 |
| 20260505181510 | 82 | 183 | 5.2 | 16.5 | 0.00 | 0.00 | 0.00 | 44 | 1006.1 |
| 20260505180014 | 81 | 107 | 7.8 | 15.6 | 0.00 | 0.00 | 0.00 | 41 | 1006.2 |
| 20260505174509 | 81 | 171 | 10.4 | 21.7 | 0.00 | 0.00 | 0.00 | 45 | 1006.3 |
| 20260505173007 | 82 | 136 | 7.8 | 16.5 | 0.00 | 0.00 | 0.00 | 45 | 1006.3 |
| 20260505171508 | 82 | 193 | 7.8 | 14.8 | 0.00 | 0.00 | 0.00 | 43 | 1006.5 |
| 20260505170007 | 82 | 165 | 6.1 | 15.6 | 0.00 | 0.00 | 0.00 | 45 | 1006.7 |
| 20260505164501 | 81 | 174 | 2.6 | 12.2 | 0.00 | 0.00 | 0.00 | 50 | 1006.8 |
| 20260505163059 | 81 | 182 | 8.7 | 13.9 | 0.00 | 0.00 | 0.00 | 43 | 1007.1 |
| 20260505161605 | 80 | 169 | 8.7 | 16.5 | 0.00 | 0.00 | 0.00 | 43 | 1007.4 |
| 20260505153101 | 79 | 197 | 7.0 | 11.3 | 0.00 | 0.00 | 0.00 | 47 | 1007.9 |
| 20260505151600 | 79 | 140 | 7.0 | 18.2 | 0.00 | 0.00 | 0.00 | 49 | 1007.8 |
| 20260505124523 | 66 | 164 | 5.2 | 12.2 | 0.00 | 0.00 | 0.00 | 67 | 1008.7 |
| 20260505123014 | 65 | 146 | 7.0 | 10.4 | 0.00 | 0.00 | 0.00 | 66 | 1008.9 |
| 20260505121512 | 64 | 173 | 5.2 | 9.6 | 0.00 | 0.00 | 0.00 | 69 | 1009.0 |
| 20260505120020 | 63 | 174 | 3.5 | 7.0 | 0.00 | 0.00 | 0.00 | 69 | 1009.1 |
| 20260505114506 | 62 | 153 | 4.3 | 8.7 | 0.00 | 0.00 | 0.00 | 70 | 1009.0 |
| 20260505113003 | 61 | 185 | 3.5 | 7.8 | 0.00 | 0.00 | 0.00 | 72 | 1008.7 |
| 20260505111503 | 59 | 159 | 4.3 | 7.8 | 0.00 | 0.00 | 0.00 | 74 | 1008.6 |
| 20260505101556 | 59 | 162 | 2.6 | 6.1 | 0.00 | 0.00 | 0.00 | 73 | 1008.1 |
| 20260505100054 | 59 | 185 | 2.6 | 8.7 | 0.00 | 0.00 | 0.00 | 73 | 1007.9 |
| 20260505094553 | 59 | 153 | 3.5 | 10.4 | 0.00 | 0.00 | 0.00 | 74 | 1007.9 |
| 20260505093058 | 59 | 145 | 1.7 | 9.6 | 0.00 | 0.00 | 0.00 | 74 | 1007.7 |
| 20260505091602 | 59 | 144 | 2.6 | 10.4 | 0.00 | 0.00 | 0.00 | 74 | 1007.7 |
| 20260505090050 | 59 | 150 | 2.6 | 9.6 | 0.00 | 0.00 | 0.00 | 74 | 1007.7 |
| 20260505084552 | 59 | 157 | 1.7 | 7.8 | 0.00 | 0.00 | 0.00 | 73 | 1007.7 |
| 20260505083054 | 60 | 158 | 1.7 | 7.0 | 0.00 | 0.00 | 0.00 | 72 | 1007.5 |
| 20260505081550 | 60 | 152 | 3.5 | 10.4 | 0.00 | 0.00 | 0.00 | 73 | 1007.5 |
| 20260505080049 | 59 | 123 | 4.3 | 9.6 | 0.00 | 0.00 | 0.00 | 74 | 1007.5 |
| 20260505074547 | 57 | 182 | 2.6 | 8.7 | 0.00 | 0.00 | 0.00 | 76 | 1007.5 |
| 20260505073147 | 57 | 160 | 1.7 | 7.8 | 0.00 | 0.00 | 0.00 | 76 | 1007.3 |
| 20260505071554 | 57 | 159 | 0.9 | 4.3 | 0.00 | 0.00 | 0.00 | 76 | 1007.3 |
| 20260505070041 | 57 | 171 | 1.7 | 5.2 | 0.00 | 0.00 | 0.00 | 76 | 1007.2 |
| 20260505064541 | 58 | 142 | 1.7 | 4.3 | 0.00 | 0.00 | 0.00 | 77 | 1007.2 |
| 20260505063038 | 58 | 159 | 2.6 | 5.2 | 0.00 | 0.00 | 0.00 | 77 | 1007.3 |
| 20260505061537 | 58 | 152 | 2.6 | 6.1 | 0.00 | 0.00 | 0.00 | 77 | 1007.5 |
| 20260505060045 | 58 | 162 | 0.9 | 6.1 | 0.00 | 0.00 | 0.00 | 75 | 1007.6 |
| 20260505054534 | 59 | 167 | 1.7 | 6.1 | 0.00 | 0.00 | 0.00 | 74 | 1007.6 |
| 20260505053030 | 60 | 150 | 1.7 | 5.2 | 0.00 | 0.00 | 0.00 | 72 | 1007.7 |
| 20260505051527 | 61 | 188 | 1.7 | 6.1 | 0.00 | 0.00 | 0.00 | 71 | 1007.7 |
| 20260505041521 | 62 | 166 | 2.6 | 10.4 | 0.00 | 0.00 | 0.00 | 70 | 1007.3 |
| 20260505040012 | 63 | 169 | 3.5 | 9.6 | 0.00 | 0.00 | 0.00 | 68 | 1007.3 |
| 20260505034511 | 64 | 184 | 2.6 | 6.1 | 0.00 | 0.00 | 0.00 | 67 | 1007.3 |
| 20260505033012 | 65 | 188 | 1.7 | 4.3 | 0.00 | 0.00 | 0.00 | 66 | 1007.3 |
| 20260505031507 | 65 | 172 | 3.5 | 7.8 | 0.00 | 0.00 | 0.00 | 65 | 1007.4 |
| 20260505030007 | 65 | 144 | 4.3 | 10.4 | 0.00 | 0.00 | 0.00 | 63 | 1007.4 |
| 20260505024509 | 65 | 160 | 4.3 | 9.6 | 0.00 | 0.00 | 0.00 | 65 | 1007.4 |
| 20260505023017 | 64 | 175 | 5.2 | 11.3 | 0.00 | 0.00 | 0.00 | 66 | 1007.5 |
| 20260505021506 | 63 | 165 | 3.5 | 8.7 | 0.00 | 0.00 | 0.00 | 67 | 1007.2 |
| 20260505020006 | 64 | 167 | 2.6 | 7.0 | 0.00 | 0.00 | 0.00 | 65 | 1007.2 |
| 20260505014511 | 65 | 163 | 3.5 | 5.2 | 0.00 | 0.00 | 0.00 | 64 | 1007.2 |
| 20260505013002 | 66 | 165 | 2.6 | 5.2 | 0.00 | 0.00 | 0.00 | 63 | 1007.1 |
| 20260505011502 | 67 | 164 | 1.7 | 7.8 | 0.00 | 0.00 | 0.00 | 60 | 1006.9 |
| 20260505010001 | 67 | 181 | 6.1 | 13.0 | 0.00 | 0.00 | 0.00 | 61 | 1006.7 |
| 20260505004501 | 67 | 172 | 4.3 | 10.4 | 0.00 | 0.00 | 0.00 | 57 | 1006.6 |
| 20260505003105 | 67 | 155 | 4.3 | 11.3 | 0.00 | 0.00 | 0.00 | 56 | 1006.3 |
| 20260505003001 | 67 | 169 | 4.3 | 11.3 | 0.00 | 0.00 | 0.00 | 56 | 1006.3 |
| 20260505001600 | 68 | 151 | 4.3 | 11.3 | 0.00 | 0.00 | 0.00 | 55 | 1006.2 |
| 20260505000108 | 69 | 151 | 2.6 | 8.7 | 0.00 | 0.00 | 0.00 | 53 | 1006.3 |
| 20260504234559 | 70 | 144 | 3.5 | 7.0 | 0.00 | 0.00 | 0.00 | 51 | 1006.2 |
| 20260504233106 | 71 | 151 | 4.3 | 8.7 | 0.00 | 0.00 | 0.00 | 49 | 1006.0 |
| 20260504231558 | 72 | 173 | 3.5 | 12.2 | 0.00 | 0.00 | 0.00 | 48 | 1006.0 |
| 20260504230104 | 73 | 167 | 4.3 | 12.2 | 0.00 | 0.00 | 0.00 | 46 | 1006.0 |
| 20260504224556 | 74 | 119 | 5.2 | 14.8 | 0.00 | 0.00 | 0.00 | 45 | 1006.1 |
| 20260504223101 | 74 | 147 | 6.1 | 13.0 | 0.00 | 0.00 | 0.00 | 44 | 1006.1 |
| 20260504221555 | 74 | 132 | 5.2 | 10.4 | 0.00 | 0.00 | 0.00 | 44 | 1006.2 |
| 20260504220056 | 75 | 145 | 6.1 | 15.6 | 0.00 | 0.00 | 0.00 | 43 | 1006.1 |
| 20260504214608 | 75 | 163 | 7.0 | 14.8 | 0.00 | 0.00 | 0.00 | 44 | 1006.1 |
| 20260504213059 | 74 | 173 | 5.2 | 13.0 | 0.00 | 0.00 | 0.00 | 44 | 1006.1 |
| 20260504211555 | 74 | 148 | 5.2 | 12.2 | 0.00 | 0.00 | 0.00 | 44 | 1006.2 |
| 20260504210052 | 75 | 150 | 6.1 | 11.3 | 0.00 | 0.00 | 0.00 | 42 | 1006.1 |
| 20260504204552 | 77 | 128 | 7.0 | 17.4 | 0.00 | 0.00 | 0.00 | 41 | 1006.2 |
| 20260504203048 | 77 | 165 | 5.2 | 13.0 | 0.00 | 0.00 | 0.00 | 44 | 1006.3 |
| 20260504201559 | 76 | 165 | 7.0 | 13.0 | 0.00 | 0.00 | 0.00 | 45 | 1006.5 |
| 20260504200046 | 77 | 180 | 7.8 | 13.9 | 0.00 | 0.00 | 0.00 | 42 | 1006.7 |
| 20260504194548 | 76 | 144 | 7.8 | 14.8 | 0.00 | 0.00 | 0.00 | 42 | 1007.0 |
| 20260504193038 | 75 | 117 | 5.2 | 11.3 | 0.00 | 0.00 | 0.00 | 44 | 1007.5 |
| 20260504191539 | 75 | 160 | 5.2 | 13.0 | 0.00 | 0.00 | 0.00 | 46 | 1007.7 |
| 20260504190035 | 74 | 195 | 5.2 | 14.8 | 0.00 | 0.00 | 0.00 | 44 | 1007.9 |
| 20260504184538 | 75 | 153 | 7.0 | 13.0 | 0.00 | 0.00 | 0.00 | 42 | 1008.2 |